Voltar ao catálogo

STARLINK-32744

AtivoComunicaçõesVLEO
NORAD 62509·PAYLOAD·🇺🇸 United States

Lançado Jan 6, 2025 de Cape Canaveral Space Force Station

Loading…

Próximas Passagens (próximas 24 horas)

TLE

AtualizadoSource: CelesTrak SupGP

Época: Sep 14, 2026, 22:30 UTC

1 62509C 25003Y   26257.93798611  .00009631  00000+0  34886-3 0  2575
2 62509  43.0005 300.5014 0001574 265.5539   3.1953 15.27570083    11

Acompanhe STARLINK-32744 em tempo real com AllMySat

Download on the App Store